Voltar ao catálogo

GEESAT 5-07

AtivoCiênciaLEO
NORAD 65556·PAYLOAD·🇨🇳 China

Lançado Sep 8, 2025 de Yellow Sea Launch Area

Loading…

Próximas Passagens (próximas 24 horas)

TLE

AtualizadoSource: Space-Track

Época: Sep 14, 2026, 07:09 UTC

1 65556U 25201G   26257.29822450  .00001143  00000-0  16149-3 0  9994
2 65556  49.9902 345.6860 0013178 294.3254  65.6308 14.84388550 55030

Acompanhe GEESAT 5-07 em tempo real com AllMySat

Download on the App Store